Liverpool, United Kingdom

4:31 PM BST on August 26, 2016 (GMT +0100)
Liverpool

Weather History for EGGP - November, 2012

Change the Weather History Date:

Monday, November 19, 2012

  Actual Average Record
Temperature  
Mean Temperature 46 °F -  
Max Temperature 51 °F 45 °F 57 °F (2003)
Min Temperature 42 °F 37 °F 26 °F (2005)
Degree Days  
Heating Degree Days 18    
Moisture  
Dew Point 44 °F    
Average Humidity 84    
Maximum Humidity 94    
Minimum Humidity 76    
Precipitation  
Precipitation 0.00 in - - ()
Sea Level Pressure  
Sea Level Pressure 29.61 in    
Wind  
Wind Speed 17 mph ()    
Max Wind Speed 28 mph    
Max Gust Speed -    
Visibility 6.2 miles    
Events Rain    
Averages and records for this station are not official NWS values.
T = Trace of Precipitation, MM = Missing Value Source: Averaged Metar Reports

Daily Weather History Graph

Daily Weather History Graph

Search for Another Location

Airport or City:

Trip Planner

Search our weather history database for the weather conditions in past years. The results will help you decide how hot, cold, wet, or windy it might be!

Date:

Astronomy

Nov. 19, 2012 Rise Set
Actual Time 7:44 AM GMT 4:08 PM GMT
Civil Twilight 7:04 AM GMT 4:48 PM GMT
Nautical Twilight 6:21 AM GMT 5:31 PM GMT
Astronomical Twilight 5:40 AM GMT 6:12 PM GMT
Moon 12:21 PM GMT (11/19) 10:41 PM GMT (11/19)
Length of Visible Light 9h 43m
Length of Day
8h 24m
Waxing Crescent, 38% of the Moon is Illuminated
Nov 19
Waxing Crescent
Nov 20
First Quarter
Nov 28
Full
Dec 6
Last Quarter
Dec 13
New

Hourly Weather History & Observations

Time (GMT) Temp. Windchill Dew Point Humidity Pressure Visibility Wind Dir Wind Speed Gust Speed Precip Events Conditions
12:20 AM 42.8 °F 35.1 °F 39.2 °F 87% 29.77 in 6.2 mi SSE 16.1 mph - N/A Rain Light Rain Showers
12:50 AM 44.6 °F 36.4 °F 39.2 °F 81% 29.74 in 6.2 mi SSE 20.7 mph - N/A Rain Light Rain Showers
1:20 AM 44.6 °F 36.4 °F 39.2 °F 81% 29.74 in 6.2 mi SSE 20.7 mph - N/A Rain Light Rain Showers
1:50 AM 44.6 °F 37.2 °F 39.2 °F 81% 29.74 in 6.2 mi SSE 17.3 mph - N/A Rain Light Rain Showers
2:20 AM 44.6 °F 36.4 °F 39.2 °F 81% 29.71 in 6.2 mi SSE 20.7 mph - N/A Rain Light Rain Showers
2:50 AM 44.6 °F 36.1 °F 39.2 °F 81% 29.71 in 6.2 mi SSE 21.9 mph - N/A Rain Light Rain Showers
3:20 AM 46.4 °F 39.2 °F 39.2 °F 76% 29.68 in 6.2 mi SSE 18.4 mph - N/A Rain Light Rain Showers
3:50 AM 46.4 °F 38.7 °F 39.2 °F 76% 29.68 in 6.2 mi SSE 20.7 mph - N/A   Partly Cloudy
4:20 AM 46.4 °F 38.5 °F 39.2 °F 76% 29.68 in 6.2 mi South 21.9 mph - N/A   Partly Cloudy
4:50 AM 46.4 °F 38.7 °F 39.2 °F 76% 29.65 in 6.2 mi SSE 20.7 mph - N/A   Partly Cloudy
5:20 AM 44.6 °F 36.1 °F 39.2 °F 81% 29.65 in 6.2 mi SSE 21.9 mph - N/A   Partly Cloudy
5:50 AM 46.4 °F 39.0 °F 39.2 °F 76% 29.65 in 6.2 mi SSE 19.6 mph - N/A   Partly Cloudy
6:20 AM 46.4 °F 38.5 °F 39.2 °F 76% 29.65 in 6.2 mi SSE 21.9 mph - N/A   Scattered Clouds
6:50 AM 46.4 °F 39.2 °F 39.2 °F 76% 29.65 in 6.2 mi SSE 18.4 mph - N/A   Scattered Clouds
7:20 AM 46.4 °F 39.8 °F 41.0 °F 81% 29.62 in 6.2 mi SSE 16.1 mph - N/A   Mostly Cloudy
7:50 AM 46.4 °F 39.2 °F 41.0 °F 81% 29.62 in 6.2 mi South 18.4 mph - N/A   Mostly Cloudy
8:20 AM 46.4 °F 38.7 °F 41.0 °F 81% 29.62 in 6.2 mi South 20.7 mph - N/A   Mostly Cloudy
8:50 AM 48.2 °F - 41.0 °F 76% 29.59 in 6.2 mi SSE 20.7 mph - N/A   Mostly Cloudy
9:20 AM 48.2 °F - 42.8 °F 82% 29.59 in 6.2 mi SSE 20.7 mph - N/A   Mostly Cloudy
9:50 AM 48.2 °F - 42.8 °F 82% 29.59 in 6.2 mi SSE 13.8 mph - N/A   Mostly Cloudy
10:20 AM 50.0 °F - 42.8 °F 76% 29.59 in 6.2 mi South 25.3 mph - N/A   Mostly Cloudy
10:50 AM 50.0 °F - 42.8 °F 76% 29.59 in 6.2 mi South 21.9 mph - N/A   Mostly Cloudy
11:20 AM 50.0 °F - 44.6 °F 82% 29.56 in 6.2 mi SSE 19.6 mph - N/A   Scattered Clouds
11:50 AM 50.0 °F - 44.6 °F 82% 29.56 in 6.2 mi South 21.9 mph - N/A   Scattered Clouds
12:20 PM 50.0 °F - 44.6 °F 82% 29.56 in 6.2 mi South 25.3 mph - N/A   Mostly Cloudy
12:50 PM 50.0 °F - 44.6 °F 82% 29.56 in 6.2 mi South 23.0 mph - N/A   Scattered Clouds
1:20 PM 51.8 °F - 46.4 °F 82% 29.53 in 6.2 mi South 23.0 mph - N/A Rain Light Rain Showers
1:50 PM 50.0 °F - 46.4 °F 87% 29.53 in 6.2 mi South 20.7 mph - N/A Rain Light Rain Showers
2:20 PM 51.8 °F - 48.2 °F 88% 29.53 in 6.2 mi South 27.6 mph - N/A   Mostly Cloudy
2:50 PM 51.8 °F - 48.2 °F 88% 29.53 in 6.2 mi South 26.5 mph - N/A   Mostly Cloudy
3:20 PM 51.8 °F - 48.2 °F 88% 29.53 in 6.2 mi South 25.3 mph - N/A   Mostly Cloudy
3:50 PM 51.8 °F - 48.2 °F 88% 29.53 in 6.2 mi South 23.0 mph - N/A   Mostly Cloudy
4:20 PM 51.8 °F - 48.2 °F 88% 29.56 in 6.2 mi South 20.7 mph - N/A   Mostly Cloudy
4:50 PM 51.8 °F - 48.2 °F 88% 29.56 in 6.2 mi South 23.0 mph - N/A   Mostly Cloudy
5:20 PM 50.0 °F - 48.2 °F 94% 29.56 in 6.2 mi South 21.9 mph - N/A   Scattered Clouds
5:50 PM 50.0 °F - 48.2 °F 94% 29.59 in 6.2 mi South 17.3 mph - N/A   Mostly Cloudy
6:20 PM 51.8 °F - 48.2 °F 88% 29.59 in 6.2 mi South 16.1 mph - N/A   Mostly Cloudy
6:50 PM 51.8 °F - 48.2 °F 88% 29.59 in 6.2 mi South 17.3 mph - N/A   Mostly Cloudy
7:20 PM 51.8 °F - 48.2 °F 88% 29.59 in 6.2 mi South 12.7 mph - N/A   Mostly Cloudy
7:50 PM 50.0 °F - 48.2 °F 94% 29.59 in 6.2 mi SSW 11.5 mph - N/A   Scattered Clouds
8:20 PM 50.0 °F - 48.2 °F 94% 29.62 in 6.2 mi South 8.1 mph - N/A   Scattered Clouds
8:50 PM 50.0 °F - 48.2 °F 94% 29.62 in 6.2 mi South 5.8 mph - N/A   Partly Cloudy
9:20 PM 50.0 °F - 48.2 °F 94% 29.62 in 6.2 mi SSE 5.8 mph - N/A   Scattered Clouds
9:50 PM 50.0 °F - 48.2 °F 94% 29.62 in 6.2 mi South 10.4 mph - N/A   Mostly Cloudy
10:20 PM 50.0 °F - 46.4 °F 87% 29.62 in 6.2 mi South 6.9 mph - N/A   Mostly Cloudy
10:50 PM 50.0 °F - 46.4 °F 87% 29.62 in 6.2 mi South 11.5 mph - N/A   Scattered Clouds
11:20 PM 50.0 °F - 46.4 °F 87% 29.62 in - SSE 12.7 mph - N/A   Clear
11:50 PM 50.0 °F - 46.4 °F 87% 29.62 in - SSE 12.7 mph - N/A   Clear